Location: Alfortville
(48.8058°N, 2.4204°E)
Time: 15:05:56
(UTC+00:00)

CUTE-I - Visible Passes

Search period start: 01 April 2023 00:00
Search period end: 11 April 2023 00:00
Orbit: 809 x 823 km, 98.7° (Epoch: 31 March)

Date Brightness Start Highest point End Pass type
(mag) Time Alt. Az. Time Alt. Az. Time Alt. Az.
01 Apr ? 04:42:47 10° ENE 04:45:12 13° E 04:47:38 10° ESE visible
06 Apr ? 04:34:25 10° ENE 04:35:31 11° E 04:36:36 10° E visible
07 Apr ? 18:59:02 10° WSW 19:01:01 12° W 19:03:01 10° WNW visible
